Location: Ida Center
(41.8662°N, 83.5713°W)
Time: 04:13:48
(UTC+00:00)

ERBS - Pass Details

Date: 17 November 2019
Orbit: 411 x 430 km, 57.0° (Epoch: 05 December)

Event Time Altitude Azimuth Distance (km) Brightness Sun altitude
Rises 23:10:51 0° 242° (WSW) 2,335 7.9 -11.1°
Reaches altitude 10° 23:13:00 10° 250° (WSW) 1,479 6.6 -11.5°
Maximum altitude 23:16:07 39° 321° (NW) 635 3.3 -12.0°
Enters shadow 23:18:51 13° 29° (NNE) 1,327 4.4 -12.5°
